{"data":{"norad_id":59135,"intl_designator":"2024-043AP","name":"VSP RF A1","alt_names":[],"object_type":"PAYLOAD","status":"ACTIVE","operator":null,"country":"BEL","launch_date":"2024-03-04","launch_site_code":"AFWTR","launch_vehicle":null,"mission":null,"orbit_class":"UNKNOWN","rcs_meters":null,"size_class":null,"mass_kg":null,"dimensions":null,"purposes":[],"wikipedia_slug":null,"has_3d_model":false,"image_url":null,"decayed_at":null,"tle_current":{"epoch":"2026-05-25T00:23:55.795200Z","epoch_age_seconds":73621,"freshness":"FRESH","line1":"1 59135U 24043AP  26145.01661800 -.00000048  00000+0  10331-5 0  9991","line2":"2 59135  97.5395 281.1914 0008240 328.0146  32.0591 15.26618389123451","mean_motion":15.26618389,"eccentricity":0.000824,"inclination_deg":97.5395,"raan_deg":281.1914,"arg_perigee_deg":328.0146,"mean_anomaly_deg":32.0591,"bstar":1.0331e-6,"rev_number":12345,"period_min":94.326126972914,"perigee_km":480.27402542453,"apogee_km":491.58600786796,"semimajor_km":6864.0670166462,"source":"CELESTRAK","updated_at":"2026-05-25T13:38:01.198107Z"}}}